Location: Waco, TX
(31.5480°N, 97.1670°W)
Time: 23:09:04
(UTC-06:00)

ISS - Pass Details

Date: 15 November 2018
Orbit: 402 x 408 km, 51.6° (Epoch: 17 November)

Event Time Altitude Azimuth Distance (km) Brightness Sun altitude
Rises 05:34:57 0° 318° (NW) 2,318 - -17.5°
Reaches altitude 10° 05:37:04 10° 322° (NW) 1,457 - -17.1°
Exits shadow 05:38:58 31° 335° (NNW) 737 -2.9 -16.7°
Maximum altitude 05:40:17 60° 44° (NE) 466 -3.4 -16.4°
Drops below altitude 10° 05:43:31 10° 125° (SE) 1,454 0.1 -15.7°
Sets 05:45:36 0° 129° (SE) 2,311 1.2 -15.3°
